Home   Weather   Wright   Past weeks

Flag for USA Past Weather in Wright, Florida, USA — Yesterday and Last 2 Weeks

Now
75 °F

Sunny.


Feels Like: 78 °F
Forecast: 58 / 82 °F
Wind: 6 mph from Northeast

Location: Hurlburt Field

Current Time: Oct 1, 2016 at 10:31:47 AM

Latest Report: Oct 1, 2016 at 9:58 AM


Visibility: 10 mi

Pressure: 30.09 "Hg

Humidity: 47%

Dew Point: 54 °F

Location of WrightLocation

Past Weather in Wright — Graph

°F

Wright Temperature Yesterday

Maximum temperature yesterday: 81 °F (at 2:58 PM)
Minimum temperature yesterday: 55 °F (at 6:58 AM)
Average temperature yesterday: 68 °F

High & Low Weather Summary for the Past Weeks

 TemperatureHumidityPressure
High93 °F (Sep 24, 11:58 AM)100% (Sep 17, 7:45 AM)30.09 "Hg (Sep 17, 7:45 AM)
Low54 °F (Oct 1, 6:58 AM)32% (Sep 30, 1:58 PM)29.88 "Hg (Sep 27, 4:58 PM)
Average79 °F75%29.99 "Hg
* Reported Sep 16 8:58 AM — Oct 1 8:58 AM, Wright, Weather by CustomWeather, © 2016

Note: Actual official high and low records may vary slightly from our data, if they occured in-between our weather recording intervals... More about our weather records

Advertising

Wright Weather History for the Previous 24 Hours

Scroll right to see more
 ConditionsComfort  
Time TempWeatherWind HumidityBarometerVisibility
8:58 AM
Sat, Oct 1
71 °FSunny.5 mph55%30.09 "Hg10 mi
7:58 AM61 °FSunny.6 mph89%30.09 "Hg10 mi
6:58 AM54 °FSunny.5 mph93%30.06 "Hg10 mi
5:58 AM55 °FSunny.5 mph92%30.04 "Hg10 mi
4:58 AM56 °FClear.7 mph91%30.03 "Hg10 mi
3:58 AM57 °FClear.6 mph92%30.03 "Hg10 mi
2:58 AM57 °FClear.6 mph91%30.04 "Hg10 mi
1:58 AM58 °FClear.5 mph89%30.06 "Hg10 mi
12:58 AM60 °FClear.5 mph87%30.06 "Hg10 mi
11:58 PM
Fri, Sep 30
60 °FClear.5 mph86%30.06 "Hg10 mi
10:58 PM63 °FClear.3 mph81%30.06 "Hg10 mi
9:58 PM64 °FClear.5 mph73%30.04 "Hg10 mi
8:58 PM65 °FClear.7 mph72%30.03 "Hg10 mi
7:58 PM69 °FClear.7 mph61%30.01 "Hg10 mi
6:58 PM74 °FClear.6 mph49%30.01 "Hg10 mi
5:58 PM78 °FClear.8 mph41%29.99 "Hg10 mi
4:58 PM80 °FSunny.7 mph34%29.99 "Hg10 mi
3:58 PM81 °FSunny.8 mph34%29.99 "Hg10 mi
2:58 PM81 °FSunny.8 mph35%30.01 "Hg10 mi
1:58 PM81 °FSunny.8 mph32%30.02 "Hg10 mi
12:58 PM80 °FSunny.8 mph36%30.04 "Hg10 mi
11:58 AM79 °FSunny.12 mph37%30.07 "Hg10 mi
10:58 AM76 °FSunny.3 mph41%30.09 "Hg10 mi
Weather by CustomWeather, © 2016

See weather overviewHow to use our weather pages